Regional Weather Roundup
Issued by NWS

Home | Current Version | Previous Version | Text Only | Print | Product List | Glossary On
Versions: 1 2 3 4 5 6 7 8 9 10 11 12 13 14 15 16 17 18 19 20 21 22 23 24 25 26 27 28 29 30 31 32 33 34 35 36 37 38 39 40 41 42 43 44 45 46 47 48 49 50
000
ASUS43 KTOP 021008
RWRKS

WEATHER ROUNDUP FOR KANSAS
NATIONAL WEATHER SERVICE GOODLAND KS
500 AM CDT MON MAY 02 2016

NOTE:  "FAIR" INDICATES FEW OR NO CLOUDS BELOW 12,000 FEET WITH NO
SIGNIFICANT WEATHER AND/OR OBSTRUCTIONS TO VISIBILITY.

KSZ001>006-013>018-027>032-041>047-021100-
NORTHWEST KANSAS

CITY           SKY/WX    TMP DP  RH WIND       PRES   REMARKS
GOODLAND       CLEAR     30  27  88 W8        30.22F
HAYS           CLOUDY    43  34  70 NW6       30.19F
HILL CITY      CLOUDY    41  38  89 W6        30.20F
RUSSELL        CLOUDY    44  41  89 NW10      30.18S
$$

KSZ061>065-074>080-084>089-021100-
SOUTHWEST KANSAS

CITY           SKY/WX    TMP DP  RH WIND       PRES   REMARKS
DODGE CITY     CLOUDY    36  34  92 NW8       30.21S
ELKHART          N/A     37  31  79 NW7         N/A
GARDEN CITY    MOCLDY    37  35  92 N7        30.21S
GREAT BEND     CLOUDY    45  36  70 NW7       30.19S
LIBERAL        CLEAR     37  32  81 NW7       30.22S
PRATT          CLOUDY    42  39  91 NW7       30.19S
$$

KSZ066>073-081>083-090>101-021100-
SOUTHEAST KANSAS

CITY           SKY/WX    TMP DP  RH WIND       PRES   REMARKS
CHANUTE        CLOUDY    50  44  80 N6        30.11S
COFFEYVILLE    CLOUDY    52  45  77 N6        30.12R
HUTCHINSON     CLOUDY    47  43  86 NW8       30.17S
MEDICINE LODGE   N/A     46  42  86 NW7       30.18S
NEWTON         CLOUDY    45  37  76 N9        30.17R
PARSONS        CLOUDY    51  46  83 N7        30.12R
WICHITA INTL   CLOUDY    48  42  80 N12       30.15S
WICHITA JABRA  CLOUDY    46  42  86 NW9       30.15R
WICHITA MCCONL MOCLDY    47  42  84 N14       30.15R
WINFIELD       CLOUDY    48  43  82 N10       30.16R
$$

KSZ007>012-019>026-033>040-048>060-102>105-021100-
NORTHEAST KANSAS

CITY           SKY/WX    TMP DP  RH WIND       PRES   REMARKS
CONCORDIA      CLOUDY    46  43  89 NW6       30.16F
EMPORIA        CLOUDY    47  43  86 N6        30.12F
LAWRENCE       CLOUDY    48  44  86 NW8       30.12F
MANHATTAN      CLOUDY    49  42  77 NW3       30.14F
MARYSVILLE     CLOUDY    46  45  93 NW3       30.14F
OLATHE IND     CLOUDY    47  45  93 NW7       30.12S
OLATHE EXE     CLOUDY    47  44  90 N6        30.10F
SALINA         CLOUDY    48  44  86 NW8       30.17S
TOPEKA BILLARD CLOUDY    48  43  82 NW9       30.12F
TOPEKA FORBES  CLOUDY    49  43  80 N10       30.11F
$$



USA.gov is the U.S. government's official web portal to all federal, state and local government web resources and services.